RH
28 28 27 27 26 24 23 21 20 19 18 18 19 19 19 21 22 23 24 26 27 27 27 26 26 25 24 25 26 26 25 25 24 23 22 20 19 19 20 21 21 18 14 10 8 7 6 6 5 4 4 3 3 3 3 3 3 4 4 4 4 4 5 5 5 6 6 5 5 4 4 4 4 3 4 4 4 4 4 4 4 4 4 4 4
28 27 24 23 23 22 21 20 21 21 20 20 20 21 23 26 27 28 30 33 35 36 37 39 42 42 40 38 36 35 32 29 26 24 22 21 21 22 23 23 20 15 10 8 7 7 6 5 4 4 4 3 3 3 3 4 4 4 4 4 4 5 5 6 6 7 8 8 8 7 6 6 6 5 5 5 5 5 5 5 5 4 4 4 4
27 25 23 22 22 22 22 23 22 22 22 22 22 23 27 30 31 32 33 34 35 36 36 36 40 46 50 49 43 39 35 31 27 24 22 22 23 25 26 22 16 11 9 8 7 6 5 5 4 4 3 4 4 4 4 4 4 4 5 5 5 6 6 6 7 8 9 10 10 10 10 9 9 9 8 8 8 8 8 7 7 6 5 5 5
28 27 26 25 26 26 25 24 24 23 23 23 23 24 25 28 31 31 31 31 31 32 33 32 32 36 42 44 41 39 38 35 30 25 23 24 26 27 24 17 11 9 8 7 6 6 5 4 4 4 4 4 4 4 4 4 4 5 5 5 6 6 7 7 8 8 9 10 11 11 11 11 11 11 11 10 10 11 11 10 10 9 8 8 7
32 31 31 30 29 28 27 25 25 25 25 24 24 24 25 28 30 30 31 32 32 31 31 30 27 28 33 37 39 41 43 39 32 26 25 28 29 25 18 12 9 9 8 7 6 5 4 4 4 4 4 4 4 4 4 4 4 5 5 6 6 7 8 8 9 10 10 11 11 11 11 11 11 11 11 11 11 11 11 11 11 11 10 10 9
31 31 31 31 30 28 27 27 27 28 28 27 26 27 29 31 33 35 38 39 39 41 42 38 29 28 34 39 42 46 45 38 31 28 29 30 25 18 12 10 10 9 7 6 5 4 4 4 4 3 4 4 4 4 4 4 4 5 5 6 7 8 10 10 11 11 10 10 10 10 9 8 8 7 7 7 7 7 8 8 9 9 9 10 10
27 28 28 30 31 30 29 28 29 32 33 33 32 31 31 33 35 41 47 47 44 45 51 52 40 33 38 44 45 45 39 32 30 31 30 25 18 12 10 10 10 9 6 5 4 3 4 3 3 4 3 3 3 4 4 4 4 5 7 8 10 11 12 12 11 10 9 8 6 5 5 4 3 3 3 3 3 3 3 3 4 4 5 6 7
27 27 28 30 31 31 31 31 32 36 38 38 38 37 35 34 37 43 51 53 49 47 54 58 51 43 44 46 42 36 32 31 32 30 25 18 13 11 11 10 9 7 5 4 3 3 3 3 3 3 3 3 4 4 4 5 6 7 9 10 11 11 10 9 7 5 4 3 3 2 2 2 2 2 2 3 3 3 3 4 3 3 3 3 4
30 31 31 32 35 35 35 36 36 38 41 42 44 45 43 40 41 47 53 55 54 54 58 59 54 49 45 39 34 31 32 33 30 24 18 13 12 11 11 10 8 6 5 4 3 3 3 3 3 3 4 4 4 4 6 7 8 9 9 9 7 6 4 3 2 2 2 2 2 2 3 4 6 7 9 10 11 11 11 11 11 12 10 6 4
29 32 34 35 39 43 44 45 43 41 41 44 48 52 52 49 48 51 57 58 56 58 60 56 50 44 37 32 30 31 32 30 24 18 14 12 12 12 11 9 7 6 5 4 4 4 3 4 4 4 4 4 5 7 8 9 8 7 5 4 3 2 2 2 2 2 3 5 7 11 14 17 19 23 27 28 29 29 28 27 29 31 30 26 19
36 29 35 41 46 52 56 55 54 50 44 44 50 56 58 57 53 55 62 63 59 59 59 51 42 35 31 30 31 32 30 25 18 14 13 12 13 12 11 9 7 6 5 4 5 4 4 4 4 4 5 7 8 9 8 7 5 3 2 2 2 2 2 3 6 10 16 22 29 35 41 43 44 47 51 52 51 50 47 45 45 45 44 41 37
55 36 34 43 52 59 63 62 63 61 52 45 48 55 61 61 57 58 64 65 61 59 54 43 34 31 30 32 33 31 26 20 15 13 13 13 13 12 10 8 6 6 5 5 5 4 5 5 5 7 8 8 8 6 4 3 2 1 2 2 2 5 9 15 21 30 39 45 49 53 56 58 58 58 61 64 64 63 60 59 56 52 46 40 36
77 61 47 48 55 61 66 68 68 66 61 53 49 52 60 63 61 62 65 66 63 57 46 35 31 30 32 34 32 27 20 15 13 14 14 13 12 11 9 7 6 6 5 5 5 5 6 6 7 7 6 5 4 2 1 2 2 2 2 4 11 21 29 37 42 47 51 54 55 56 57 58 58 57 56 57 59 60 60 59 58 53 44 38 38
82 83 74 68 69 68 66 65 67 66 64 61 58 57 62 66 66 65 67 67 62 51 39 33 32 32 33 32 26 19 15 14 14 14 14 12 11 9 7 6 6 5 5 6 6 6 6 5 4 3 2 2 2 1 2 2 1 2 8 20 34 43 48 51 52 53 53 53 54 54 54 55 57 56 54 51 48 47 45 45 45 42 39 42 49
62 64 62 60 63 63 59 57 58 59 61 63 64 65 69 71 69 67 70 67 56 42 34 34 34 34 32 26 19 15 14 14 15 14 12 11 9 7 6 6 6 6 6 6 5 4 3 2 2 2 2 2 2 2 2 1 4 14 29 42 51 54 56 56 55 55 56 56 57 57 57 58 58 57 56 51 47 48 48 48 46 44 48 51 48
46 33 34 42 48 50 57 62 58 54 57 64 69 72 75 74 69 69 71 63 46 35 34 36 36 32 27 19 14 14 15 15 15 13 11 9 7 6 6 6 6 5 4 3 2 2 1 1 2 2 2 2 2 2 1 7 21 37 49 54 56 58 58 56 56 59 62 64 67 69 72 73 70 69 67 62 60 63 64 65 65 62 60 53 39
52 36 32 39 42 43 59 76 74 65 60 63 72 78 75 71 69 70 65 50 37 33 34 36 33 26 19 15 15 16 15 14 13 11 8 7 6 6 6 5 4 3 1 2 2 1 1 2 1 2 2 2 1 2 10 27 44 53 56 58 60 59 54 51 54 61 66 70 75 79 84 86 84 81 80 78 78 78 77 80 79 68 52 37 23
66 55 36 30 39 51 69 85 87 82 75 70 71 73 71 71 70 65 52 39 33 33 34 32 27 20 16 15 16 16 15 13 11 8 7 7 6 6 5 3 2 2 1 2 1 1 2 2 1 2 2 1 3 13 31 49 58 61 64 64 61 54 49 50 54 59 65 69 72 75 82 91 96 94 92 93 92 90 89 83 69 53 39 25 14
60 49 32 30 49 69 80 83 80 81 84 79 68 66 71 71 63 50 40 36 36 35 32 28 21 17 16 16 16 15 13 11 9 7 6 6 5 4 2 2 2 2 2 2 1 2 2 1 2 2 1 4 15 33 51 62 66 69 69 64 55 48 49 56 61 62 64 65 69 73 78 87 97 100 97 90 82 83 87 76 57 50 48 38 31
46 40 38 40 51 62 68 71 71 73 80 77 68 67 68 58 46 40 37 37 37 34 29 23 18 17 17 16 16 14 11 9 7 7 6 5 3 2 2 2 2 1 1 2 1 2 2 1 2 2 3 13 32 51 63 67 70 73 69 59 51 49 54 62 64 62 62 62 65 70 73 79 92 98 89 69 55 58 63 60 62 69 64 52 51
32 43 49 48 53 62 66 70 70 69 72 70 64 61 54 42 37 37 35 35 35 31 24 19 17 18 18 16 15 12 9 8 7 6 5 3 2 2 2 2 2 1 2 2 1 2 2 1 2 2 7 27 49 62 68 70 71 71 64 55 50 52 61 67 62 57 57 51 40 35 37 46 58 63 55 42 40 39 29 35 69 92 82 65 57
31 48 54 53 63 74 77 74 68 64 65 62 54 47 40 35 35 33 30 32 33 26 21 19 20 20 18 15 13 10 8 7 7 5 3 2 2 3 2 2 2 2 2 1 1 2 2 1 3 4 12 35 57 65 65 68 70 66 58 50 50 57 67 68 57 49 46 33 15 6 8 13 17 20 21 26 36 33 14 25 69 93 83 67 51
53 60 59 57 63 70 72 70 63 58 55 49 41 37 34 32 31 29 30 32 29 23 20 21 21 21 18 14 11 9 7 7 6 3 2 2 3 3 2 2 2 2 2 2 1 2 1 2 6 11 18 32 50 62 66 66 65 61 54 50 54 62 68 62 49 42 36 21 7 3 4 4 4 6 12 19 25 25 19 29 52 61 60 58 43
70 73 73 69 68 69 68 64 57 50 43 38 35 34 34 32 32 33 33 30 25 22 22 22 21 19 15 12 10 7 7 6 4 2 2 3 3 3 3 3 2 2 2 2 1 2 2 1 6 21 34 39 44 54 63 66 64 60 55 53 56 60 61 54 46 42 35 18 5 3 3 4 5 6 8 12 19 26 31 32 33 32 33 35 28
71 79 81 78 76 70 63 55 48 42 37 36 36 35 35 37 37 35 31 26 24 24 23 23 21 16 12 11 8 6 7 6 2 2 3 3 3 3 3 3 2 2 2 2 1 2 2 1 3 16 37 51 54 58 63 64 64 62 58 56 55 55 56 56 53 48 38 19 6 2 3 3 3 5 6 7 12 19 22 20 20 21 17 19 29
71 78 75 71 66 57 51 47 43 39 38 38 38 37 39 39 37 32 28 26 25 25 24 23 19 13 11 10 7 6 7 4 1 3 4 3 4 4 3 3 3 3 2 2 2 1 2 3 2 3 14 31 47 60 68 70 69 67 63 60 56 54 57 61 58 49 40 25 9 2 3 4 2 3 5 4 4 8 11 10 12 14 14 25 46
64 64 57 53 49 44 46 47 42 40 42 41 39 40 40 38 33 30 29 28 27 25 23 21 16 12 11 9 6 7 6 2 2 4 3 4 4 4 4 4 3 3 3 2 2 2 1 2 3 2 2 6 15 28 41 52 60 65 67 65 61 58 60 62 57 49 43 33 15 2 1 4 3 2 2 4 5 4 5 7 7 7 14 30 44
51 50 44 43 44 42 44 45 42 43 47 45 40 39 39 37 34 31 29 27 26 25 22 18 14 12 10 7 6 7 5 1 2 4 4 5 5 4 4 4 3 3 3 2 2 2 2 1 1 2 3 2 3 5 8 16 28 40 53 63 65 62 60 60 57 52 46 38 25 11 2 1 3 4 2 2 3 3 3 5 6 5 11 24 33
49 49 46 45 45 43 43 46 46 47 49 48 43 41 41 39 35 33 30 26 25 25 21 15 12 12 10 7 7 6 3 1 3 4 5 6 6 5 5 5 4 4 3 3 2 2 2 2 2 2 2 2 3 3 3 3 6 12 27 46 60 63 63 61 59 54 49 44 37 27 15 5 1 2 4 3 3 4 3 2 3 5 7 15 30
54 53 54 54 51 47 48 51 51 50 53 53 47 44 45 43 39 36 33 29 27 25 19 13 12 11 8 6 7 6 2 2 4 5 6 7 6 6 6 5 5 5 3 3 3 2 1 2 2 2 3 2 2 3 3 3 3 3 10 27 47 62 68 66 62 57 52 49 45 41 36 27 16 8 5 3 2 3 3 3 4 5 6 8 19
59 56 57 61 58 52 50 54 55 54 55 54 50 45 44 45 43 40 36 33 30 25 17 12 12 11 8 6 7 5 2 2 4 5 7 8 7 7 7 6 5 5 4 4 3 2 2 2 2 2 2 2 3 3 2 3 3 3 4 11 32 58 73 72 67 61 55 51 51 50 48 48 48 43 34 27 22 16 11 10 5 2 10 18 14
57 58 57 59 59 55 53 54 55 53 52 51 50 47 45 45 45 42 38 35 31 24 16 12 12 10 7 6 7 4 2 2 4 5 7 8 8 7 7 7 6 6 5 5 4 3 2 2 2 2 2 2 2 2 2 3 3 3 3 4 16 46 74 80 72 65 59 54 54 57 57 54 56 62 65 65 64 59 51 47 39 32 43 56 42
39 50 56 59 58 55 53 53 51 50 51 51 50 48 48 48 48 44 39 36 31 23 15 12 12 10 7 7 7 4 2 2 4 6 7 8 8 8 8 7 7 7 6 5 4 3 3 2 2 2 2 2 3 2 2 3 2 2 4 3 5 26 59 79 78 72 69 64 58 58 65 66 61 60 63 67 73 76 75 77 77 73 77 81 68
18 28 41 53 58 56 53 52 50 49 49 49 51 52 53 53 51 46 41 36 32 23 14 12 12 10 6 7 7 3 2 3 4 6 8 8 8 8 8 7 7 7 7 6 5 4 3 2 2 2 2 2 2 2 2 2 3 2 3 4 2 7 29 59 78 82 81 80 73 62 61 68 73 71 67 63 63 66 69 72 78 81 83 83 77
15 15 22 35 49 56 55 53 50 49 49 51 53 55 57 57 55 49 42 38 33 24 15 12 12 9 6 7 7 3 2 3 4 5 7 9 8 9 8 8 8 8 7 6 6 5 3 2 1 2 2 2 2 3 2 2 3 2 2 3 4 2 7 30 65 87 91 90 87 75 62 63 74 82 83 77 70 65 62 61 62 65 67 70 70
16 15 18 28 43 54 59 59 54 48 48 52 56 57 58 60 59 52 45 40 34 23 15 12 12 10 7 6 6 4 2 3 5 5 7 8 8 9 9 8 8 9 8 6 6 5 4 3 2 2 2 2 2 2 2 2 2 3 2 2 3 3 2 8 33 67 89 96 95 85 71 66 71 78 82 82 79 74 70 65 60 58 58 59 62
25 23 21 28 42 49 51 52 52 48 45 47 52 56 58 62 64 57 47 42 36 23 14 13 12 9 7 7 6 4 2 3 5 5 6 8 8 8 9 8 8 9 8 6 6 6 4 4 3 2 2 2 2 2 2 2 2 2 3 3 2 3 4 3 7 28 60 87 99 95 83 75 75 74 72 72 73 72 71 70 67 65 64 64 65
49 54 50 53 62 63 51 39 33 33 33 33 37 44 53 64 70 62 48 45 39 25 14 13 12 9 7 7 6 4 2 3 5 5 6 8 8 8 9 8 8 9 8 6 6 6 5 5 4 2 2 2 2 2 2 2 2 2 1 3 3 2 2 4 3 4 20 50 79 93 91 86 86 87 86 85 84 80 77 78 79 80 80 81 78
53 73 77 78 81 81 72 54 33 22 22 24 26 34 46 62 74 67 52 47 42 27 15 13 12 9 7 7 6 4 2 2 5 5 6 7 8 8 9 8 7 8 8 6 6 6 5 5 5 3 3 2 2 2 2 2 2 3 2 1 3 3 1 2 4 2 3 14 38 65 83 91 95 97 98 98 95 88 85 88 93 94 91 89 85
58 66 66 65 66 68 69 63 45 29 23 22 24 30 41 60 75 72 56 48 44 31 16 12 12 10 8 7 7 5 2 2 5 5 6 7 8 8 8 8 7 8 7 6 6 6 6 6 6 5 4 3 2 2 3 2 1 2 3 2 1 3 3 2 2 4 3 2 7 23 44 64 79 88 95 99 97 90 85 87 89 88 85 85 86
56 54 48 50 56 59 61 61 54 42 31 23 23 30 40 57 74 72 57 50 47 33 18 12 12 10 8 7 7 5 2 2 4 5 5 7 7 7 8 8 7 7 7 6 6 6 6 7 8 7 6 5 4 2 2 3 2 2 2 3 2 2 2 3 2 2 3 4 2 3 8 18 30 43 56 67 73 76 79 82 82 78 76 81 88
28 35 39 43 46 48 53 59 60 52 37 25 23 29 38 55 72 71 58 51 48 35 20 13 12 10 8 7 7 6 3 2 4 5 5 6 7 7 8 8 7 6 7 6 6 7 8 8 8 9 8 7 6 5 2 2 3 2 2 2 3 2 2 3 3 2 2 2 3 3 3 3 4 7 12 16 21 28 39 53 66 75 79 83 89
13 20 28 32 32 33 39 48 56 58 48 32 24 26 35 52 69 69 57 51 50 39 22 13 12 10 8 7 7 6 4 1 3 5 5 6 7 7 7 8 7 6 6 7 7 8 9 9 9 10 10 9 8 8 6 4 3 3 2 2 2 3 2 2 2 3 3 2 2 2 3 3 3 3 3 4 3 4 9 18 35 57 74 84 91
10 11 14 19 22 24 27 32 42 54 56 42 27 23 31 47 65 69 57 50 50 42 25 15 12 11 8 7 7 6 4 2 2 5 5 5 6 7 7 7 7 6 5 7 8 8 9 10 10 10 11 11 10 10 9 8 6 4 3 3 2 2 3 3 2 2 2 2 3 3 2 3 3 2 2 3 3 3 4 5 9 19 33 49 66
11 11 12 14 16 17 19 21 27 41 52 47 32 24 27 40 60 70 61 51 50 46 31 17 13 11 8 7 7 6 5 3 2 3 5 6 6 7 7 7 7 6 6 6 8 9 10 10 10 11 11 11 12 12 11 11 9 7 5 4 3 2 2 2 3 3 3 2 2 3 3 3 3 3 3 3 3 3 3 3 3 4 6 12 23
12 11 10 11 12 14 18 19 21 31 44 44 32 24 25 34 52 68 67 55 49 48 37 21 14 12 9 6 7 7 5 3 2 3 5 6 6 6 7 7 6 6 6 6 8 10 10 9 10 11 11 10 11 12 12 12 12 11 9 7 5 4 3 3 2 2 3 3 3 3 3 3 3 3 3 3 3 4 3 3 3 4 3 3 4
14 13 11 11 11 11 15 19 22 28 39 41 32 24 24 30 42 61 69 60 49 48 42 28 16 12 10 6 6 7 6 3 2 3 4 5 6 6 6 7 7 6 6 7 7 9 10 10 10 10 10 11 11 12 12 13 13 12 12 11 10 7 6 5 4 3 3 3 3 3 3 3 3 4 4 4 3 4 4 4 3 3 3 3 4
15 14 12 11 11 10 12 16 20 25 35 41 36 28 25 27 33 50 67 66 52 46 45 33 19 13 11 7 5 7 7 4 3 3 3 5 6 6 6 6 7 6 6 7 8 8 10 10 10 9 10 11 11 11 12 13 13 13 13 13 13 12 11 9 8 6 4 3 3 3 3 3 3 3 3 4 4 3 4 4 4 4 4 3 3
16 16 14 12 12 11 10 13 17 21 28 36 38 33 29 27 27 39 60 69 58 47 45 39 24 14 11 9 6 6 8 5 3 2 3 4 5 6 6 6 7 7 7 7 7 8 9 10 10 10 10 10 10 11 12 12 13 13 13 13 13 14 14 13 12 11 9 7 5 4 3 3 4 4 3 4 4 4 4 4 4 4 4 4 4
16 16 15 13 12 11 9 10 14 18 22 30 35 34 31 28 25 29 48 65 64 51 45 42 31 17 11 10 7 5 7 7 4 2 3 4 4 6 6 6 6 7 7 7 7 8 9 9 10 10 9 9 10 10 11 12 12 13 13 13 13 13 14 14 14 14 13 12 10 9 7 5 3 3 3 3 3 4 4 4 4 4 4 4 4
16 16 16 14 13 12 10 8 10 13 17 23 30 34 35 33 28 25 35 56 65 57 47 45 38 24 13 10 8 6 6 7 5 2 2 4 4 5 6 6 6 6 7 7 7 8 8 9 10 10 9 9 9 9 9 11 12 12 12 12 11 11 12 13 14 14 14 15 14 13 12 11 9 6 5 4 3 3 3 3 4 4 4 4 4
Wind_Speed
6 7 8 9 8 8 9 9 10 11 12 11 11 11 11 11 12 12 12 12 13 13 14 14 15 16 17 17 18 19 19 19 19 19 20 20 21 21 20 20 20 20 20 21 21 22 22 22 23 23 23 24 25 25 26 27 27 28 28 29 29 29 28 28 29 30 30 31 33 34 34 34 34 32 31 31 31 32 32 32 33 33 34 35 35
7 7 8 8 8 8 9 10 11 12 12 12 12 11 11 12 12 13 13 13 14 14 15 16 16 16 17 17 18 19 19 20 20 19 19 20 20 20 20 20 20 21 21 21 22 22 22 22 22 22 23 24 25 26 27 28 28 29 29 30 30 30 30 30 30 30 31 31 32 33 34 35 36 36 35 34 34 34 34 34 35 35 35 36 36
7 7 8 8 8 8 10 11 12 12 13 13 13 12 12 12 13 13 14 14 15 15 15 16 16 16 17 17 17 18 19 20 20 20 19 20 20 20 21 21 21 22 22 22 23 23 23 23 23 23 24 25 26 27 28 29 30 31 31 32 32 32 33 33 33 33 33 33 33 34 34 35 36 37 38 38 37 37 37 37 37 37 37 38 37
6 7 7 8 8 9 10 11 12 13 14 14 14 14 13 13 13 14 14 15 15 15 15 16 16 16 16 17 17 18 19 20 20 20 20 21 21 21 22 22 22 22 22 23 23 24 24 25 25 25 26 27 28 29 30 31 31 32 33 34 34 35 35 36 36 37 36 37 37 37 37 37 38 39 39 39 40 41 41 41 40 40 40 40 40
6 7 7 8 8 9 9 11 12 13 13 14 14 14 14 14 14 14 15 15 15 15 15 16 16 16 16 17 18 18 19 20 21 21 21 21 22 22 22 22 22 22 23 23 24 25 25 26 26 27 28 28 29 31 32 32 33 34 35 36 36 37 38 39 39 40 40 40 41 41 42 42 42 42 42 42 43 43 43 44 45 44 44 43 43
8 8 9 9 10 10 10 11 12 12 13 14 14 14 14 14 15 15 16 16 16 16 16 16 16 16 16 17 18 18 19 20 21 21 22 22 22 22 22 22 22 23 24 25 25 25 26 26 27 28 29 30 31 32 33 34 35 36 37 38 39 40 41 42 43 43 43 44 44 45 45 46 46 46 46 46 46 46 46 47 47 48 48 48 47
11 11 12 12 12 12 12 12 13 13 14 14 15 15 14 15 16 17 18 19 18 17 16 16 15 15 16 17 18 18 19 20 21 22 23 23 23 23 23 23 24 24 25 25 26 26 26 27 28 29 30 31 32 33 35 35 36 37 38 39 40 41 43 44 45 46 46 47 47 47 48 48 48 48 48 47 47 47 47 48 48 49 49 50 51
12 13 14 14 13 13 13 13 13 14 15 15 15 16 16 17 18 18 19 20 20 19 17 16 16 16 16 17 18 18 19 21 22 23 23 24 24 24 24 24 24 25 25 25 26 26 27 28 29 31 32 33 34 35 36 36 37 38 40 41 42 43 44 44 45 46 46 46 47 47 47 47 46 46 46 46 46 46 46 46 47 48 48 50 51
11 12 13 13 13 13 14 14 14 14 15 15 16 16 17 18 19 19 20 22 21 19 17 16 16 16 16 17 18 19 20 21 22 22 23 24 24 24 24 24 25 25 26 26 27 28 29 30 32 34 35 36 37 38 39 40 41 43 44 45 45 46 46 45 45 44 43 43 43 43 43 43 43 42 42 42 42 42 42 42 42 43 44 47 49
10 11 12 12 13 13 14 14 14 14 15 15 16 16 17 18 19 20 22 23 22 19 16 15 15 15 16 17 18 19 19 20 21 22 23 23 24 24 24 25 26 26 27 28 29 30 32 33 34 36 37 39 40 41 42 44 46 47 47 47 47 45 44 43 42 41 40 39 40 40 40 40 38 37 37 37 37 37 37 37 37 37 37 39 42
12 11 11 12 12 13 13 14 14 14 15 16 16 16 17 17 18 19 21 22 21 18 16 15 15 16 16 18 19 20 20 20 21 22 23 24 25 25 25 26 27 28 29 30 31 33 34 35 36 38 39 41 42 44 46 47 47 47 46 45 43 41 39 39 39 38 38 37 37 36 36 36 35 34 34 34 33 34 34 35 35 34 34 34 36
14 13 11 11 12 12 12 12 12 14 15 16 17 16 17 17 17 18 20 21 19 17 16 15 15 16 17 19 20 20 20 20 21 23 24 25 25 26 26 27 28 29 30 31 33 35 36 37 39 40 42 44 45 46 46 46 45 43 41 40 38 37 37 36 36 35 34 34 33 33 33 33 34 33 33 33 34 34 35 35 35 35 35 35 36
15 13 11 11 11 11 11 11 12 13 14 16 17 17 17 17 17 17 18 19 17 15 15 15 16 17 19 19 20 20 20 21 22 23 24 25 27 27 27 28 29 31 32 33 35 37 39 41 42 44 45 46 46 45 45 43 41 39 37 36 36 35 34 33 33 32 33 33 34 34 34 34 34 34 34 34 35 35 36 36 37 36 35 35 36
13 12 11 12 12 12 13 13 14 15 15 16 17 17 17 17 17 16 17 17 15 13 14 16 17 19 19 19 19 20 20 21 22 24 25 27 27 28 28 29 31 33 34 36 38 41 43 44 46 47 47 46 45 44 42 39 36 35 34 33 33 32 32 32 32 33 34 35 35 35 35 34 34 33 33 33 34 34 35 35 36 35 35 35 35
13 11 11 13 14 15 16 16 16 16 17 18 17 16 16 16 16 16 16 15 13 12 14 16 18 19 19 18 19 20 21 22 23 25 26 27 27 28 30 31 33 35 37 39 41 44 45 46 47 47 46 44 42 40 37 34 32 31 31 30 30 30 31 33 34 35 35 35 34 33 32 31 30 30 29 29 29 29 30 31 32 32 33 34 34
12 13 15 16 17 19 18 17 17 17 18 18 16 15 15 15 14 15 15 14 13 13 14 16 18 19 18 18 19 21 22 23 24 26 26 27 28 29 31 33 35 38 40 41 43 45 46 46 45 43 41 39 37 34 32 30 29 28 28 28 29 30 32 33 34 34 34 34 34 33 32 30 28 27 27 27 27 27 27 28 29 30 31 33 33
12 13 16 17 19 22 19 17 17 17 17 16 14 13 13 13 12 13 13 13 13 14 14 15 16 17 17 18 19 21 22 24 25 26 26 27 29 30 33 35 38 40 42 43 44 45 45 44 41 38 35 33 31 29 27 26 26 26 27 28 29 31 33 34 34 34 33 32 32 32 31 29 27 26 25 25 24 25 26 26 27 28 30 30 30
14 14 17 20 22 22 19 15 14 12 12 13 13 11 11 11 11 11 12 13 14 15 15 15 15 16 17 18 19 22 23 24 25 25 26 28 30 32 35 37 39 41 43 44 45 45 43 41 37 34 32 30 27 26 24 24 25 26 27 28 30 31 33 34 34 34 33 32 32 31 28 25 23 22 22 22 22 23 23 24 24 25 24 22 21
16 17 20 21 21 19 16 13 12 10 10 11 12 10 10 10 10 10 12 14 16 16 16 16 16 16 18 18 20 22 23 24 24 25 26 28 31 33 35 37 40 42 44 44 44 43 41 38 35 32 30 28 26 24 23 24 25 26 27 28 30 32 32 33 33 34 34 33 32 30 25 20 18 19 20 21 22 23 21 18 16 15 14 12 14
20 21 21 21 20 18 16 14 12 10 10 11 11 10 9 9 9 11 13 14 15 16 15 15 16 17 18 19 20 21 22 23 24 25 27 29 31 33 36 38 40 42 43 43 43 42 39 35 32 29 28 26 24 22 22 23 24 25 27 29 30 31 31 31 31 31 32 32 31 28 24 18 16 17 18 18 18 18 16 11 7 6 7 10 13
23 23 23 22 20 17 14 11 9 8 9 9 10 10 9 9 11 12 13 13 14 14 14 15 17 18 19 20 20 21 22 23 23 25 27 29 31 33 36 38 40 42 43 43 43 41 38 33 30 28 26 25 23 21 22 22 23 25 27 29 29 29 29 29 28 29 29 29 27 24 20 16 15 15 14 12 11 11 11 9 5 3 5 9 12
24 24 24 23 18 12 9 7 7 8 9 8 9 10 10 11 13 13 14 14 14 13 14 16 18 19 19 20 20 21 22 22 23 26 28 29 31 34 36 38 40 43 44 44 44 42 39 34 30 27 25 24 22 21 21 22 23 25 28 29 29 29 28 27 26 27 27 27 25 21 17 13 11 10 9 7 7 7 8 9 8 7 6 8 11
26 24 23 20 16 11 9 8 8 9 9 9 10 11 12 13 13 14 15 15 14 14 15 17 19 19 19 20 20 21 21 22 24 26 27 28 31 33 35 38 41 43 45 45 45 44 41 37 31 28 25 23 22 21 22 22 24 26 28 29 29 28 27 25 25 25 26 25 23 20 17 14 11 9 6 4 3 3 6 9 9 9 9 10 12
24 20 16 14 11 10 9 8 8 8 9 10 11 12 13 14 13 14 14 14 14 15 16 18 19 18 18 19 20 20 21 23 24 24 25 29 31 32 35 38 41 44 46 46 46 44 42 39 34 30 27 24 23 22 22 22 24 25 27 28 27 26 25 24 25 26 25 23 20 18 16 14 13 11 9 6 5 6 8 9 10 11 13 15 15
18 13 11 10 9 9 8 8 8 9 10 12 14 14 14 13 12 12 12 12 14 16 17 18 18 17 18 20 20 20 21 22 22 23 26 29 31 32 35 38 41 44 46 46 46 44 42 39 36 33 29 26 24 22 21 22 23 24 25 26 26 26 26 26 26 26 23 21 18 16 14 13 13 12 12 11 11 12 12 13 14 16 18 18 16
13 10 10 9 9 10 9 9 10 11 12 14 16 16 14 12 11 11 12 13 15 16 17 18 17 17 19 20 19 19 20 20 21 23 26 29 30 33 36 39 41 44 45 46 46 44 41 39 36 34 31 28 26 24 22 22 22 22 23 24 25 26 27 27 26 24 21 19 17 14 12 12 11 11 11 11 12 13 13 13 16 18 19 18 16
11 11 10 10 9 10 10 10 10 12 13 15 17 17 15 13 13 14 14 15 16 16 17 17 17 18 19 18 17 18 19 19 20 23 26 29 31 34 37 39 41 43 45 46 46 45 42 39 36 34 32 30 28 26 24 23 23 22 22 23 24 25 26 25 24 22 20 18 16 14 12 10 9 9 9 9 9 11 11 11 13 14 15 15 15
12 11 10 9 9 8 9 9 10 12 13 15 17 17 16 14 14 15 15 15 15 15 15 16 17 18 18 17 16 17 18 18 20 23 26 29 32 35 37 39 41 43 45 46 47 45 43 40 38 36 34 32 30 28 27 25 24 22 21 21 22 23 24 25 24 22 20 17 15 14 12 10 9 9 8 7 8 9 10 10 10 11 12 13 15
11 11 10 9 8 8 8 8 9 11 12 14 16 17 15 14 13 13 13 14 14 14 14 14 16 17 16 15 16 17 17 18 20 23 26 29 32 35 37 39 41 42 44 46 47 46 44 42 40 38 36 34 31 29 28 26 25 23 21 20 20 21 23 24 23 22 19 16 14 14 13 12 10 9 9 8 8 8 9 10 11 11 11 12 14
10 10 9 9 9 9 9 9 9 10 11 12 14 16 15 13 12 13 13 13 14 14 14 14 15 16 15 14 15 17 16 17 19 23 26 29 31 34 36 38 40 41 43 45 46 47 46 43 41 39 37 35 33 31 29 28 27 25 22 20 19 19 20 21 21 20 18 16 14 13 13 13 12 11 10 10 9 10 10 10 11 12 11 11 12
9 9 9 9 10 11 10 9 10 10 10 11 12 14 15 14 13 13 13 14 15 15 14 14 15 15 14 13 15 16 15 16 19 23 25 28 31 33 36 38 39 40 42 44 46 47 47 44 42 40 39 37 35 33 31 29 27 26 24 21 19 17 18 18 19 18 18 17 15 13 12 12 12 11 11 10 10 10 10 10 10 10 10 8 9
11 10 9 9 10 11 10 10 10 11 11 10 11 13 15 15 14 13 14 14 15 15 14 14 15 14 13 13 15 15 14 15 18 22 24 27 30 33 35 37 38 40 41 43 45 48 48 45 43 42 41 39 37 35 32 30 28 27 25 23 20 17 16 17 17 17 18 18 17 14 12 10 10 10 10 10 10 10 10 9 9 9 8 7 6
11 12 11 10 11 11 11 10 10 11 11 10 11 12 15 16 15 14 14 15 15 15 14 14 14 13 12 13 15 14 13 14 18 20 23 26 29 31 33 36 38 40 41 42 44 47 48 46 44 42 42 41 39 37 35 33 30 28 26 25 22 19 16 15 16 17 18 19 19 17 14 11 9 8 8 8 9 9 9 9 9 9 8 7 6
12 12 12 11 11 12 12 11 11 11 11 11 11 13 15 16 16 15 15 15 15 14 13 13 13 12 12 13 14 13 12 14 17 19 22 26 28 30 32 34 37 39 40 41 43 45 47 47 45 43 43 42 42 40 39 36 33 30 28 26 24 21 18 16 16 17 19 20 20 18 16 13 10 9 8 7 7 8 8 8 8 8 7 6 6
13 13 12 12 12 12 12 11 12 12 12 11 12 13 15 16 16 15 14 14 15 14 12 12 12 11 11 12 13 12 11 13 15 18 21 25 28 29 30 33 36 38 39 40 42 43 46 47 45 44 43 44 44 43 42 40 37 34 30 27 25 24 21 19 17 16 18 20 21 20 18 15 13 11 10 9 8 8 8 7 7 7 7 6 6
14 13 12 12 12 12 11 10 11 12 12 12 13 14 15 16 16 15 13 14 14 14 11 11 11 10 10 12 12 10 10 12 14 17 20 24 27 28 29 31 34 36 38 39 40 41 44 46 46 45 44 44 44 45 44 43 41 38 34 30 27 25 24 22 19 16 17 19 21 21 19 17 15 14 14 13 12 11 10 9 8 7 7 7 8
16 15 15 14 13 12 11 9 10 11 13 14 15 16 16 16 16 15 13 13 14 13 11 10 10 10 10 11 11 9 9 11 13 16 19 23 25 26 27 29 32 34 36 37 38 40 42 44 45 45 45 44 44 45 46 46 45 42 38 34 30 27 25 24 22 20 18 17 17 18 19 18 17 18 18 18 17 16 14 13 11 11 10 10 10
18 17 16 13 11 11 10 10 11 13 14 15 16 17 17 17 16 15 14 13 13 12 10 9 9 9 9 9 9 8 8 10 12 15 18 22 24 25 26 27 29 32 34 35 36 38 40 42 44 45 45 44 44 45 46 47 47 46 43 40 36 32 29 26 25 23 21 19 17 16 17 18 19 20 20 20 19 19 17 16 15 15 14 14 13
17 16 17 16 14 12 12 12 15 16 16 16 16 17 16 16 16 15 14 13 13 12 10 8 9 8 8 8 8 8 7 9 11 14 17 20 22 23 24 26 27 30 32 33 34 36 38 41 43 45 45 45 45 45 45 46 47 48 47 45 42 39 35 32 29 27 25 23 21 19 18 17 18 18 19 18 18 17 17 17 16 16 15 14 12
16 16 19 20 19 15 14 14 15 16 17 17 16 15 15 15 15 14 13 13 13 12 9 8 8 8 7 7 7 6 6 7 9 12 15 18 20 22 23 24 26 28 29 30 32 34 36 39 42 44 45 46 45 45 45 45 47 48 49 49 48 45 41 38 34 32 29 28 26 23 21 19 17 16 16 14 13 11 11 12 13 13 13 13 11
17 17 18 19 18 15 14 15 15 14 14 16 16 15 14 14 13 12 12 12 13 12 9 7 7 6 6 6 6 5 5 6 8 11 14 16 18 20 21 22 24 25 27 28 29 31 34 36 39 42 44 45 46 45 45 45 46 47 48 49 50 50 48 45 42 38 35 32 30 28 26 23 21 19 16 14 11 9 8 8 8 8 9 10 10
15 14 16 18 18 16 16 17 16 14 13 14 16 16 15 14 13 11 10 10 12 12 10 8 7 6 5 5 5 4 4 4 6 9 12 14 16 18 20 21 22 23 24 25 27 29 31 34 36 39 42 44 45 46 46 45 45 46 47 48 49 50 51 50 49 46 43 40 36 33 30 27 25 23 21 19 17 16 14 12 11 10 9 10 11
14 13 15 17 19 18 17 18 18 17 15 14 15 16 16 15 13 11 9 9 11 11 9 8 7 5 5 4 4 3 2 3 5 7 10 12 14 16 18 19 20 21 22 23 24 26 28 31 33 36 38 41 43 44 45 45 45 45 45 46 47 48 49 50 51 51 50 47 45 42 38 35 32 29 26 24 22 21 20 18 16 15 13 12 12
16 15 14 16 18 18 18 18 17 16 15 15 15 16 16 15 14 12 9 8 9 10 9 8 7 5 3 3 3 3 1 2 3 5 7 9 11 13 15 17 18 19 20 21 22 23 25 28 30 32 35 37 39 41 43 44 45 45 45 45 45 45 46 48 49 50 51 51 50 49 48 46 43 40 37 34 31 28 25 23 21 19 17 16 15
18 16 15 15 16 18 18 18 17 15 14 14 15 15 15 15 14 12 9 7 8 9 9 8 7 5 3 2 3 3 1 1 2 4 5 7 9 11 13 14 15 16 17 18 19 20 22 24 27 29 31 33 36 37 39 40 42 44 45 45 44 43 44 45 46 47 48 49 50 51 51 51 50 49 47 44 41 38 34 31 28 25 23 20 19
20 19 17 15 16 17 18 19 19 17 15 14 14 14 15 14 13 12 10 7 7 8 8 8 7 6 4 3 4 4 2 1 2 3 4 5 6 8 10 12 13 14 15 15 16 17 19 21 24 26 28 30 32 33 35 37 38 40 42 43 44 43 43 43 44 44 45 46 47 48 49 49 50 50 50 49 48 46 43 40 37 34 30 27 24
21 21 19 17 17 17 18 20 21 19 17 15 15 15 15 14 13 12 10 8 6 6 7 8 8 6 5 4 5 5 3 2 3 3 3 3 4 6 8 9 10 11 12 13 14 14 16 18 20 22 24 26 28 30 31 33 35 36 38 40 41 42 43 43 43 43 42 42 43 44 45 46 47 47 48 49 49 49 48 47 45 43 40 36 32
22 21 20 19 18 18 18 19 21 21 19 17 16 16 16 15 13 12 11 9 7 6 6 7 8 7 6 5 6 6 5 4 4 4 4 2 2 3 5 6 8 9 9 10 11 12 13 15 17 19 21 23 25 26 28 30 31 33 34 36 38 39 40 41 42 42 42 41 41 41 41 41 42 43 44 45 46 47 48 48 48 47 46 44 41
22 22 21 21 20 19 17 18 20 21 20 18 18 18 17 16 15 13 11 11 9 7 6 7 8 8 7 6 7 8 7 5 5 6 5 4 2 1 2 4 5 6 7 7 8 9 10 11 13 15 18 20 22 23 25 27 28 29 31 32 34 35 36 38 39 41 41 42 41 41 40 39 39 39 40 41 42 43 44 45 45 46 46 46 46
22 22 22 22 21 20 18 18 20 21 21 20 20 20 19 18 17 14 12 11 11 9 7 6 8 9 9 8 8 10 9 7 7 7 7 5 4 2 1 1 2 3 4 5 5 6 7 8 10 12 14 16 18 20 22 23 25 26 28 29 30 32 33 34 35 36 38 39 40 41 41 40 40 39 38 38 38 38 39 40 41 42 43 44 44
23 23 23 23 22 20 19 18 20 22 22 21 20 21 21 20 19 16 14 12 12 11 9 7 8 9 10 9 10 11 11 10 9 9 9 8 6 5 3 2 1 0 1 2 3 3 4 6 7 9 11 13 15 17 18 20 22 23 25 26 27 28 29 30 32 33 34 36 37 38 39 40 41 41 40 39 38 37 37 37 38 38 39 40 41
Wind_Direction
311 311 316 320 320 320 320 322 326 329 332 333 329 325 322 322 320 317 316 313 311 310 307 304 302 300 301 303 304 303 302 302 301 303 305 307 308 308 309 310 311 312 313 312 310 308 306 304 302 301 300 298 297 296 296 296 296 297 297 298 298 298 297 297 295 294 292 290 289 287 286 284 280 276 273 271 268 264 261 259 256 254 252 251 250
312 314 321 325 326 325 325 327 327 327 329 327 325 324 323 322 321 319 319 318 316 315 312 309 306 302 301 302 304 303 303 304 305 306 307 308 309 309 310 311 312 314 315 313 311 308 305 303 302 300 298 297 297 297 297 298 299 300 299 299 299 298 298 296 294 293 291 289 288 286 285 285 284 281 278 275 272 269 266 263 261 259 257 255 254
318 321 328 332 335 334 332 331 328 327 328 328 329 331 329 327 327 326 324 321 318 314 311 307 304 302 302 303 305 306 305 305 306 308 310 311 312 313 314 316 317 317 315 312 309 306 305 304 303 303 302 301 301 301 301 302 303 302 301 300 299 299 298 297 295 293 291 289 287 285 283 282 282 281 280 278 277 275 272 269 266 263 261 259 258
323 327 335 338 339 339 336 334 333 333 334 334 335 336 334 333 333 331 327 323 319 314 309 304 302 303 304 304 306 308 309 309 310 311 313 315 315 317 318 319 319 317 313 310 309 308 308 309 308 307 306 305 304 304 304 304 303 302 301 300 300 300 299 298 296 295 293 290 288 286 283 281 279 278 277 276 276 276 275 273 271 268 265 263 261
324 326 331 332 336 339 338 339 338 335 334 335 337 337 334 333 334 332 329 326 323 319 312 306 304 305 307 306 307 312 314 315 315 315 316 317 318 319 320 320 318 315 313 311 311 312 312 311 310 308 307 306 306 305 304 303 302 301 301 301 301 301 299 298 296 294 292 290 288 287 284 282 280 278 275 273 272 272 272 272 272 271 268 265 263
326 327 329 328 333 337 337 339 339 335 334 335 334 332 329 329 331 331 331 329 327 325 320 313 309 309 310 310 313 319 321 320 320 320 320 320 321 321 321 320 318 316 314 313 313 312 311 310 309 307 306 306 305 304 303 303 303 303 303 303 302 302 300 298 296 294 292 289 288 286 284 282 280 278 276 274 272 270 268 268 268 268 268 267 265
329 330 332 331 331 332 333 336 337 334 333 333 329 326 327 327 328 331 332 332 331 328 323 319 315 314 315 316 319 323 324 324 324 324 324 323 323 324 323 321 318 316 314 312 311 310 309 308 307 305 304 305 304 304 304 304 304 303 301 300 299 298 297 295 294 293 291 289 287 285 283 282 280 279 277 275 273 271 269 267 265 264 264 264 263
328 327 330 329 328 327 327 329 331 329 328 328 326 325 326 326 327 330 332 333 333 330 325 324 323 322 322 323 326 328 329 330 329 328 326 325 325 324 322 320 316 313 311 309 308 307 307 306 305 305 305 306 306 305 305 303 301 299 297 296 296 295 294 293 292 291 289 288 287 285 284 282 281 280 279 277 275 272 270 268 266 264 262 261 260
317 317 319 321 320 321 323 323 322 323 325 325 324 323 324 325 325 327 331 332 333 331 327 326 328 329 329 330 331 333 334 334 331 329 327 326 325 323 320 316 313 310 309 308 308 307 307 307 307 308 309 309 308 307 306 303 301 301 300 300 298 297 296 295 293 291 290 289 287 286 284 283 281 280 278 276 274 273 271 268 266 264 263 261 260
303 306 308 311 315 318 321 322 319 320 322 321 322 324 323 322 322 326 330 332 332 331 329 328 330 333 334 335 335 336 337 335 332 329 328 326 324 322 319 315 312 311 311 311 311 309 310 311 311 311 311 310 309 308 307 305 305 304 303 301 300 299 298 297 296 295 294 292 289 287 285 284 282 280 277 275 272 270 268 266 265 263 262 261 260
296 307 310 313 322 325 325 326 323 319 319 318 320 323 322 320 321 324 328 330 331 330 330 331 333 335 338 339 337 337 339 337 333 330 328 326 324 321 318 315 314 314 314 314 313 312 313 314 313 312 311 310 310 309 308 307 306 305 303 303 302 302 301 300 300 299 297 295 293 291 289 287 284 281 278 274 271 267 265 263 262 262 262 261 261
292 306 317 321 327 328 326 326 322 315 313 313 314 318 319 319 321 323 326 329 330 327 328 333 335 337 340 339 337 337 339 337 334 331 328 326 323 321 319 318 318 317 316 316 316 316 316 315 313 312 311 311 311 310 308 307 306 305 306 306 306 305 305 304 303 302 300 298 296 293 291 288 286 282 279 275 271 268 265 263 263 263 264 264 263
288 289 309 329 331 328 326 324 319 313 309 307 308 312 316 318 322 324 326 329 329 327 329 333 336 338 340 339 337 338 339 337 334 331 328 325 324 324 323 322 321 320 320 321 320 318 317 316 315 314 312 311 310 308 306 306 307 308 309 309 309 308 308 308 307 305 303 301 298 295 292 288 284 281 278 275 271 268 266 265 264 264 264 265 264
314 294 302 320 321 322 326 323 320 316 310 305 306 310 315 319 323 325 327 329 329 329 332 335 336 337 339 339 338 339 339 337 334 330 329 328 327 327 326 325 325 324 324 323 321 320 319 318 316 314 312 310 308 307 308 309 310 311 312 312 312 312 313 312 311 309 306 303 300 296 293 289 285 281 278 274 271 269 266 264 263 263 264 264 263
351 337 335 333 324 322 321 316 316 316 310 306 307 311 315 320 323 326 329 329 328 333 337 337 336 336 339 340 341 341 340 337 334 331 330 330 330 330 330 330 328 327 326 325 323 322 320 318 316 314 312 311 310 310 312 313 314 314 315 316 317 318 318 316 314 311 309 306 304 301 297 293 289 284 281 277 273 270 267 265 264 263 263 263 263
352 351 355 350 337 330 320 308 308 313 310 306 308 313 317 319 323 327 328 327 329 336 340 339 336 336 339 344 345 343 340 337 334 333 333 333 333 334 333 332 331 330 329 329 327 324 322 320 318 317 316 315 315 316 317 317 317 319 321 323 323 322 320 318 316 315 314 312 309 305 301 297 291 286 281 278 275 272 269 267 265 264 263 264 264
340 350 358 351 340 334 323 303 297 305 310 310 311 315 318 320 325 330 328 326 330 336 340 340 338 337 344 348 346 343 340 338 335 335 336 337 337 337 336 335 335 334 333 332 329 327 325 324 324 323 322 321 321 322 321 321 323 327 328 327 325 323 321 320 320 319 318 316 312 307 302 296 291 286 281 279 277 273 271 269 268 269 269 266 260
340 349 354 348 339 330 319 303 293 298 309 316 318 322 324 327 332 334 331 330 333 338 342 343 341 343 350 351 346 343 341 338 338 340 340 340 339 340 340 340 340 338 336 334 332 331 330 329 329 329 328 328 328 326 326 329 332 332 331 328 327 326 325 325 324 323 322 319 315 311 305 297 291 287 284 282 279 275 274 274 273 273 271 261 246
342 346 347 346 343 334 322 316 312 312 316 322 327 335 337 337 341 339 336 336 338 342 345 344 343 349 354 352 348 344 341 341 343 343 342 342 343 345 346 345 343 341 339 338 338 337 336 334 333 333 333 332 331 330 333 336 336 333 331 331 331 330 329 328 327 325 324 322 319 317 313 304 294 291 291 289 283 276 274 276 278 276 267 242 216
340 343 342 341 342 336 325 321 320 318 319 322 331 344 349 347 346 344 343 343 342 344 345 343 345 352 355 352 348 345 344 345 346 345 345 347 350 350 350 347 345 344 345 345 344 343 340 337 336 336 335 334 334 335 337 337 334 333 334 335 335 334 331 330 329 328 326 326 324 322 318 308 296 295 299 299 289 275 265 267 280 277 246 210 195
338 337 333 332 336 332 325 325 322 322 328 333 343 356 357 351 350 349 349 348 346 346 344 343 348 354 354 350 349 349 350 348 347 348 351 354 355 354 351 349 349 350 351 351 351 349 345 342 340 339 338 338 338 337 336 335 335 336 338 339 338 336 333 331 331 330 331 334 335 333 328 315 300 300 304 299 288 272 255 242 229 224 214 198 194
333 329 324 326 332 336 339 340 333 337 349 360 7 8 360 355 354 352 351 352 351 349 347 348 351 353 351 351 353 353 351 349 350 354 358 359 357 354 353 353 355 356 356 356 356 354 352 348 345 344 343 341 338 337 336 336 339 342 342 342 341 339 337 334 333 335 341 347 349 349 349 341 326 318 312 295 283 267 237 211 198 202 203 194 194
332 328 324 326 331 338 346 347 348 360 15 21 18 9 1 359 357 354 354 356 353 351 351 351 352 351 350 354 356 354 352 352 356 360 2 0 357 355 355 357 358 359 360 360 359 359 358 355 351 349 348 344 340 340 340 341 344 345 345 345 344 342 338 336 338 344 350 354 356 358 3 6 5 1 351 330 298 233 202 193 192 191 178 170 175
338 335 335 339 345 350 358 7 17 27 30 24 18 10 3 1 360 359 359 356 354 354 353 352 351 351 353 357 358 356 355 357 360 3 3 0 357 355 357 360 2 3 3 3 2 1 1 0 358 356 354 350 346 345 344 344 347 348 347 347 346 343 341 344 348 351 354 357 0 5 11 18 26 32 35 45 78 123 150 159 160 156 150 149 152
351 354 0 9 16 22 28 31 30 30 28 21 15 9 6 4 5 7 3 357 356 357 354 351 351 353 357 360 359 357 358 359 2 4 3 359 357 358 1 3 5 5 5 5 5 4 4 4 3 2 1 357 354 352 350 349 349 349 349 348 348 348 350 353 355 353 354 359 5 9 16 24 34 46 54 63 82 102 119 131 135 137 140 141 142
14 28 35 38 41 41 36 27 21 20 19 15 10 8 9 10 11 12 9 3 0 357 352 350 353 358 2 2 359 357 358 0 4 5 2 359 360 3 5 7 8 7 7 7 7 7 6 6 5 6 6 3 0 357 354 352 350 350 350 350 352 355 357 358 356 354 356 4 9 13 22 30 37 50 61 70 83 97 110 126 136 139 142 142 141
36 48 52 48 42 37 28 20 16 13 8 7 7 8 8 10 12 12 9 5 1 356 351 351 357 4 6 1 357 357 359 2 6 5 3 3 5 8 9 10 9 9 8 8 9 9 8 7 6 7 8 7 5 1 358 354 351 350 350 351 354 359 360 359 358 358 2 10 15 18 24 34 42 52 64 75 88 99 109 124 135 141 143 142 141
35 42 48 42 31 28 24 14 8 6 2 2 6 7 6 7 9 9 6 1 357 354 353 355 2 7 5 358 355 359 2 5 7 6 6 8 10 11 12 12 11 10 10 10 10 11 10 9 8 8 9 9 8 6 3 359 355 353 352 352 355 359 0 1 2 4 7 14 23 25 27 35 45 54 66 78 88 98 106 114 124 134 139 138 140
23 27 34 30 16 13 15 8 2 2 359 359 4 7 5 4 5 5 2 357 353 353 357 2 8 7 1 355 357 1 4 7 8 8 11 13 13 13 14 14 13 12 12 12 12 12 12 12 11 11 11 10 9 9 9 7 4 1 358 356 357 359 2 4 7 9 10 17 27 32 33 38 45 54 65 76 85 95 104 112 120 128 134 138 141
6 10 15 11 357 355 2 1 355 356 357 359 3 4 3 1 1 2 1 356 353 355 0 8 11 6 359 357 1 4 6 9 10 12 14 14 14 15 16 15 14 13 13 13 13 14 14 14 15 14 13 12 11 11 11 12 11 9 6 3 2 3 4 7 12 15 18 22 29 36 40 43 47 54 61 70 80 90 98 108 118 125 136 146 151
346 347 351 349 342 341 348 348 345 347 353 357 1 3 2 0 358 359 0 358 355 356 3 10 11 5 0 1 4 5 8 11 13 16 16 14 15 17 18 17 16 15 15 14 15 16 16 17 17 18 17 16 15 14 13 13 13 13 12 10 8 9 8 11 17 23 26 29 33 39 45 48 51 56 61 66 73 82 91 100 109 119 130 140 148
336 333 334 335 331 330 336 340 340 342 346 350 358 4 4 0 357 357 359 358 356 357 4 12 11 5 2 5 6 6 10 14 17 20 17 14 16 18 19 19 18 17 17 16 16 17 18 19 20 20 20 20 19 17 16 16 15 16 16 14 14 14 14 15 21 29 35 37 38 41 45 51 55 58 62 66 71 77 86 94 101 110 117 123 137
332 330 329 328 325 324 328 332 334 337 340 343 353 3 5 1 357 356 357 358 357 357 5 14 12 4 3 8 8 7 10 17 21 21 17 16 17 19 20 20 20 19 19 18 18 19 20 21 22 23 23 23 22 21 20 20 19 18 19 18 18 19 20 21 26 34 41 44 44 45 47 52 59 63 65 70 75 78 84 89 94 104 114 124 135
328 329 326 321 317 316 318 321 325 329 334 338 346 358 4 2 357 354 355 357 356 356 5 15 11 3 5 10 8 6 12 21 24 22 18 18 19 20 21 22 22 21 21 20 20 21 22 23 25 26 26 26 25 25 24 23 22 21 21 22 22 23 25 28 32 39 44 46 47 48 51 54 61 66 68 74 79 83 87 90 92 98 107 116 124
317 319 317 312 306 304 306 311 316 321 328 334 342 353 358 359 357 354 353 355 355 355 5 15 10 4 10 12 7 6 15 23 26 24 20 19 20 21 22 24 24 24 23 22 22 23 24 25 27 28 28 28 28 27 27 26 25 24 23 24 25 27 29 32 37 42 47 49 48 49 51 56 62 67 70 73 77 80 85 91 95 100 106 110 117
296 293 291 286 282 283 290 298 306 316 325 331 337 345 351 355 357 355 352 355 354 353 3 15 10 6 14 13 6 7 19 25 28 27 24 21 21 21 23 26 26 26 25 24 24 25 26 28 29 30 30 30 30 29 29 29 28 28 27 26 27 29 32 36 40 45 50 52 50 48 51 57 64 70 73 75 76 76 76 79 83 89 95 99 104
274 271 270 268 266 268 279 295 307 317 326 330 332 338 344 351 356 355 353 355 354 350 359 12 9 6 15 14 5 8 21 27 30 30 26 23 22 22 24 27 28 28 27 26 25 27 29 30 32 32 32 32 32 32 32 32 32 32 32 31 32 33 35 38 41 45 52 57 57 55 57 61 68 73 76 75 76 77 78 80 82 86 89 92 95
278 279 282 286 282 275 283 308 324 326 327 328 329 333 338 346 351 352 352 355 352 348 356 9 7 7 15 13 3 8 24 29 32 33 30 25 22 23 25 28 30 30 29 27 27 29 31 32 34 34 34 34 34 34 35 35 36 36 36 37 37 38 40 42 44 46 51 56 61 65 69 70 71 72 73 73 74 74 76 79 83 85 86 88 90
296 302 311 319 318 305 305 323 332 329 326 326 327 329 333 340 347 348 348 350 350 348 352 2 4 6 14 12 3 7 24 31 33 36 33 27 23 23 26 29 32 33 32 30 29 31 33 34 35 36 36 36 36 36 36 38 39 40 40 41 41 42 44 45 47 49 51 54 58 63 70 75 76 75 75 76 75 72 72 75 80 84 85 85 86
318 333 334 330 324 318 314 318 321 321 320 321 322 325 329 335 341 344 344 344 346 345 347 355 360 3 12 13 3 3 23 35 36 38 36 29 24 23 26 30 33 34 34 32 32 33 35 36 37 37 38 38 38 38 38 39 40 42 43 44 45 45 46 48 49 50 52 53 55 58 62 68 74 78 79 78 74 69 68 69 73 81 85 82 78
332 338 331 321 314 309 302 296 295 302 311 315 316 320 326 331 336 340 341 340 340 340 340 347 353 359 9 11 360 357 21 38 38 40 39 33 25 24 27 30 34 36 35 34 35 36 37 38 38 39 39 40 39 39 39 40 40 42 44 46 47 48 49 50 51 52 53 53 54 55 57 59 62 65 68 68 65 63 63 61 63 75 84 82 80
330 321 311 308 310 312 308 301 295 295 302 309 313 317 322 327 331 336 340 339 335 333 334 338 344 354 6 5 351 349 16 42 43 43 42 36 28 26 27 30 35 38 38 37 38 39 40 40 40 40 40 41 41 41 41 41 41 42 44 46 47 49 50 51 52 54 55 55 55 56 56 56 57 58 59 60 61 61 62 62 63 67 74 79 84
319 310 304 305 310 316 320 317 310 304 303 308 314 317 320 324 328 332 337 337 332 329 329 330 333 344 357 352 335 335 5 50 52 46 43 38 32 28 28 31 35 39 40 40 42 43 43 43 42 42 42 42 42 41 41 42 42 43 44 45 47 49 50 52 53 55 56 57 58 59 59 59 59 59 59 60 61 62 62 63 63 65 68 74 81
313 310 305 304 307 312 316 316 313 308 305 306 311 315 318 321 324 326 330 334 329 326 325 322 320 327 339 326 305 308 347 68 68 54 47 42 36 31 31 32 36 40 42 42 43 45 46 45 44 43 43 43 43 42 42 42 42 43 44 45 47 48 50 51 53 55 57 59 60 61 61 61 62 62 61 61 61 61 62 62 63 65 67 70 73
310 308 306 305 305 305 305 304 304 302 299 298 302 307 312 316 319 320 322 325 324 322 321 317 309 308 312 295 274 275 285 108 98 72 54 45 39 36 34 34 37 42 45 45 45 46 47 47 46 45 44 44 44 43 42 42 43 43 44 45 46 47 48 50 51 53 55 57 59 60 61 62 62 62 62 62 61 61 61 62 63 64 65 67 69
308 307 307 305 301 298 297 297 297 296 294 291 292 296 302 306 311 312 312 312 314 314 314 310 302 295 288 268 254 252 239 159 135 109 74 53 43 40 38 38 40 44 47 49 48 47 47 47 47 46 44 44 45 44 43 42 42 43 44 45 46 46 47 48 49 51 53 55 56 58 60 61 62 63 63 63 63 62 62 62 62 63 63 64 65
304 305 305 304 299 295 293 293 293 293 291 287 284 286 291 296 302 304 301 296 296 301 303 301 295 286 274 255 245 239 229 191 164 145 112 74 51 44 42 41 43 46 49 51 50 47 45 45 46 45 44 44 44 44 44 43 42 43 44 45 45 46 46 47 48 49 51 52 53 55 56 58 59 60 62 62 63 63 62 62 62 62 63 63 64
300 301 302 302 299 295 290 287 287 289 289 284 280 279 282 286 292 296 293 284 279 282 287 290 287 279 266 249 238 232 223 201 181 167 149 124 80 52 45 45 47 50 51 52 51 47 43 41 42 43 43 43 42 42 44 44 42 42 43 44 45 45 45 46 47 48 49 50 51 52 53 55 56 57 58 59 61 61 62 61 61 61 62 63 63
297 298 299 299 297 294 289 283 281 282 283 281 276 274 275 278 283 288 286 278 270 266 269 276 277 272 263 248 235 228 221 207 192 181 171 164 154 101 56 48 50 54 54 54 52 48 41 37 36 37 39 41 41 40 41 42 42 42 42 43 44 44 45 45 46 46 47 49 50 51 51 52 53 53 54 56 57 59 60 61 61 62 62 62 63
293 294 294 294 294 292 288 281 277 276 277 276 273 271 270 271 275 280 281 276 268 261 257 262 268 267 260 248 236 227 221 212 198 188 182 182 185 182 158 63 47 55 57 54 52 47 39 31 29 29 32 36 38 38 38 39 41 40 40 41 42 43 44 45 45 46 46 47 48 49 50 51 51 52 52 53 54 55 57 59 60 61 62 63 63
288 289 290 290 291 290 287 280 274 272 272 271 270 270 268 267 268 273 277 275 268 260 254 253 260 263 259 250 238 228 221 214 204 194 190 191 194 199 201 211 248 23 51 50 44 38 30 22 19 19 21 26 31 34 36 37 38 38 38 38 39 40 42 43 44 45 45 45 46 47 48 49 50 50 51 51 52 53 54 55 57 58 60 61 62